Year,Month,Day,Hour,Minute,Value (Times are PST for temperature in C)
2013,10,18,00,00,6.80
2013,10,18,00,01,6.70
2013,10,18,00,02,6.70
2013,10,18,00,03,6.70
2013,10,18,00,04,6.70
2013,10,18,00,05,6.70
2013,10,18,00,06,6.70
2013,10,18,00,07,6.70
2013,10,18,00,08,6.70
2013,10,18,00,09,6.60
2013,10,18,00,10,6.60
2013,10,18,00,11,6.60
2013,10,18,00,12,6.60
2013,10,18,00,13,6.60
2013,10,18,00,14,6.60
2013,10,18,00,15,6.50
2013,10,18,00,16,6.50
2013,10,18,00,17,6.50
2013,10,18,00,18,6.50
2013,10,18,00,19,6.40
2013,10,18,00,20,6.40
2013,10,18,00,21,6.40
2013,10,18,00,22,6.40
2013,10,18,00,23,6.40
2013,10,18,00,24,6.40
2013,10,18,00,25,6.30
2013,10,18,00,26,6.30
2013,10,18,00,27,6.30
2013,10,18,00,28,6.30
2013,10,18,00,29,6.30
2013,10,18,00,30,6.30
2013,10,18,00,31,6.30
2013,10,18,00,32,6.30
2013,10,18,00,33,6.30
2013,10,18,00,34,6.20
2013,10,18,00,35,6.20
2013,10,18,00,36,6.20
2013,10,18,00,37,6.20
2013,10,18,00,38,6.20
2013,10,18,00,39,6.20
2013,10,18,00,40,6.20
2013,10,18,00,41,6.20
2013,10,18,00,42,6.20
2013,10,18,00,43,6.20
2013,10,18,00,44,6.20
2013,10,18,00,45,6.10
2013,10,18,00,46,6.10
2013,10,18,00,47,6.10
2013,10,18,00,48,6.10
2013,10,18,00,49,6.10
2013,10,18,00,50,6.10
2013,10,18,00,51,6.00
2013,10,18,00,52,6.00
2013,10,18,00,53,6.00
2013,10,18,00,54,6.00
2013,10,18,00,55,6.00
2013,10,18,00,56,6.00
2013,10,18,00,57,6.00
2013,10,18,00,58,6.00
2013,10,18,00,59,5.90
2013,10,18,01,00,5.90
2013,10,18,01,01,5.90
2013,10,18,01,02,5.90
2013,10,18,01,03,6.00
2013,10,18,01,04,6.00
2013,10,18,01,05,6.10
2013,10,18,01,06,6.10
2013,10,18,01,07,6.10
2013,10,18,01,08,6.10
2013,10,18,01,09,6.10
2013,10,18,01,10,6.10
2013,10,18,01,11,6.10
2013,10,18,01,12,6.10
2013,10,18,01,13,6.00
2013,10,18,01,14,6.00
2013,10,18,01,15,6.00
2013,10,18,01,16,6.00
2013,10,18,01,17,6.00
2013,10,18,01,18,5.90
2013,10,18,01,19,5.90
2013,10,18,01,20,5.90
2013,10,18,01,21,5.90
2013,10,18,01,22,5.90
2013,10,18,01,23,5.90
2013,10,18,01,24,5.90
2013,10,18,01,25,5.90
2013,10,18,01,26,5.90
2013,10,18,01,27,5.90
2013,10,18,01,28,5.90
2013,10,18,01,29,5.90
2013,10,18,01,30,5.80
2013,10,18,01,31,5.80
2013,10,18,01,32,5.80
2013,10,18,01,33,5.80
2013,10,18,01,34,5.80
2013,10,18,01,35,5.80
2013,10,18,01,36,5.90
2013,10,18,01,37,5.90
2013,10,18,01,38,5.90
2013,10,18,01,39,5.90
2013,10,18,01,40,5.80
2013,10,18,01,41,5.80
2013,10,18,01,42,5.80
2013,10,18,01,43,5.80
2013,10,18,01,44,5.80
2013,10,18,01,45,5.80
2013,10,18,01,46,5.80
2013,10,18,01,47,5.80
2013,10,18,01,48,5.80
2013,10,18,01,49,5.80
2013,10,18,01,50,5.80
2013,10,18,01,51,5.80
2013,10,18,01,52,5.70
2013,10,18,01,53,5.70
2013,10,18,01,54,5.70
2013,10,18,01,55,5.70
2013,10,18,01,56,5.60
2013,10,18,01,57,5.60
2013,10,18,01,58,5.60
2013,10,18,01,59,5.60
2013,10,18,02,00,5.60
2013,10,18,02,01,5.60
2013,10,18,02,02,5.60
2013,10,18,02,03,5.60
2013,10,18,02,04,5.60
2013,10,18,02,05,5.60
2013,10,18,02,06,5.60
2013,10,18,02,07,5.50
2013,10,18,02,08,5.50
2013,10,18,02,09,5.50
2013,10,18,02,10,5.50
2013,10,18,02,11,5.50
2013,10,18,02,12,5.50
2013,10,18,02,13,5.60
2013,10,18,02,14,5.60
2013,10,18,02,15,5.60
2013,10,18,02,16,5.60
2013,10,18,02,17,5.60
2013,10,18,02,18,5.60
2013,10,18,02,19,5.60
2013,10,18,02,20,5.60
2013,10,18,02,21,5.70
2013,10,18,02,22,5.70
2013,10,18,02,23,5.70
2013,10,18,02,24,5.70
2013,10,18,02,25,5.70
2013,10,18,02,26,5.70
2013,10,18,02,27,5.70
2013,10,18,02,28,5.70
2013,10,18,02,29,5.80
2013,10,18,02,30,5.80
2013,10,18,02,31,5.80
2013,10,18,02,32,5.80
2013,10,18,02,33,5.80
2013,10,18,02,34,5.80
2013,10,18,02,35,5.80
2013,10,18,02,36,5.80
2013,10,18,02,37,5.80
2013,10,18,02,38,5.80
2013,10,18,02,39,5.80
2013,10,18,02,40,5.80
2013,10,18,02,41,5.80
2013,10,18,02,42,5.80
2013,10,18,02,43,5.80
2013,10,18,02,44,5.70
2013,10,18,02,45,5.70
2013,10,18,02,46,5.70
2013,10,18,02,47,5.80
2013,10,18,02,48,5.80
2013,10,18,02,49,5.80
2013,10,18,02,50,5.80
2013,10,18,02,51,5.80
2013,10,18,02,52,5.80
2013,10,18,02,53,5.80
2013,10,18,02,54,5.80
2013,10,18,02,55,5.80
2013,10,18,02,56,5.80
2013,10,18,02,57,5.80
2013,10,18,02,58,5.80
2013,10,18,02,59,5.70
2013,10,18,03,00,5.70
2013,10,18,03,01,5.70
2013,10,18,03,02,5.70
2013,10,18,03,03,5.70
2013,10,18,03,04,5.70
2013,10,18,03,05,5.70
2013,10,18,03,06,5.70
2013,10,18,03,07,5.70
2013,10,18,03,08,5.70
2013,10,18,03,09,5.60
2013,10,18,03,10,5.60
2013,10,18,03,11,5.60
2013,10,18,03,12,5.60
2013,10,18,03,13,5.60
2013,10,18,03,14,5.60
2013,10,18,03,15,5.60
2013,10,18,03,16,5.60
2013,10,18,03,17,5.60
2013,10,18,03,18,5.60
2013,10,18,03,19,5.60
2013,10,18,03,20,5.60
2013,10,18,03,21,5.60
2013,10,18,03,22,5.60
2013,10,18,03,23,5.60
2013,10,18,03,24,5.60
2013,10,18,03,25,5.70
2013,10,18,03,26,5.70
2013,10,18,03,27,5.70
2013,10,18,03,28,5.70
2013,10,18,03,29,5.70
2013,10,18,03,30,5.70
2013,10,18,03,31,5.70
2013,10,18,03,32,5.70
2013,10,18,03,33,5.70
2013,10,18,03,34,5.70
2013,10,18,03,35,5.70
2013,10,18,03,36,5.70
2013,10,18,03,37,5.70
2013,10,18,03,38,5.70
2013,10,18,03,39,5.70
2013,10,18,03,40,5.70
2013,10,18,03,41,5.70
2013,10,18,03,42,5.70
2013,10,18,03,43,5.70
2013,10,18,03,44,5.70
2013,10,18,03,45,5.70
2013,10,18,03,46,5.70
2013,10,18,03,47,5.70
2013,10,18,03,48,5.80
2013,10,18,03,49,5.80
2013,10,18,03,50,5.80
2013,10,18,03,51,5.80
2013,10,18,03,52,5.80
2013,10,18,03,53,5.80
2013,10,18,03,54,5.80
2013,10,18,03,55,5.80
2013,10,18,03,56,5.80
2013,10,18,03,57,5.80
2013,10,18,03,58,5.80
2013,10,18,03,59,5.80
2013,10,18,04,00,5.80
2013,10,18,04,01,5.80
2013,10,18,04,02,5.80
2013,10,18,04,03,5.80
2013,10,18,04,04,5.80
2013,10,18,04,05,5.80
2013,10,18,04,06,5.80
2013,10,18,04,07,5.80
2013,10,18,04,08,5.80
2013,10,18,04,09,5.80
2013,10,18,04,10,5.80
2013,10,18,04,11,5.80
2013,10,18,04,12,5.90
2013,10,18,04,13,5.90
2013,10,18,04,14,5.80
2013,10,18,04,15,5.80
2013,10,18,04,16,5.80
2013,10,18,04,17,5.90
2013,10,18,04,18,5.80
2013,10,18,04,19,5.80
2013,10,18,04,20,5.80
2013,10,18,04,21,5.80
2013,10,18,04,22,5.80
2013,10,18,04,23,5.80
2013,10,18,04,24,5.80
2013,10,18,04,25,5.80
2013,10,18,04,26,5.80
2013,10,18,04,27,5.80
2013,10,18,04,28,5.80
2013,10,18,04,29,5.80
2013,10,18,04,30,5.70
2013,10,18,04,31,5.70
2013,10,18,04,32,5.70
2013,10,18,04,33,5.70
2013,10,18,04,34,5.70
2013,10,18,04,35,5.70
2013,10,18,04,36,5.70
2013,10,18,04,37,5.60
2013,10,18,04,38,5.60
2013,10,18,04,39,5.60
2013,10,18,04,40,5.60
2013,10,18,04,41,5.60
2013,10,18,04,42,5.60
2013,10,18,04,43,5.50
2013,10,18,04,44,5.50
2013,10,18,04,45,5.50
2013,10,18,04,46,5.40
2013,10,18,04,47,5.40
2013,10,18,04,48,5.40
2013,10,18,04,49,5.40
2013,10,18,04,50,5.40
2013,10,18,04,51,5.40
2013,10,18,04,52,5.40
2013,10,18,04,53,5.30
2013,10,18,04,54,5.30
2013,10,18,04,55,5.30
2013,10,18,04,56,5.30
2013,10,18,04,57,5.30
2013,10,18,04,58,5.30
2013,10,18,04,59,5.20
2013,10,18,05,00,5.20
2013,10,18,05,01,5.20
2013,10,18,05,02,5.20
2013,10,18,05,03,5.20
2013,10,18,05,04,5.20
2013,10,18,05,05,5.20
2013,10,18,05,06,5.20
2013,10,18,05,07,5.10
2013,10,18,05,08,5.10
2013,10,18,05,09,5.10
2013,10,18,05,10,5.10
2013,10,18,05,11,5.10
2013,10,18,05,12,5.10
2013,10,18,05,13,5.10
2013,10,18,05,14,5.00
2013,10,18,05,15,5.00
2013,10,18,05,16,5.00
2013,10,18,05,17,5.00
2013,10,18,05,18,5.00
2013,10,18,05,19,4.90
2013,10,18,05,20,4.90
2013,10,18,05,21,4.90
2013,10,18,05,22,4.90
2013,10,18,05,23,4.90
2013,10,18,05,24,4.90
2013,10,18,05,25,4.90
2013,10,18,05,26,4.90
2013,10,18,05,27,4.80
2013,10,18,05,28,4.80
2013,10,18,05,29,4.80
2013,10,18,05,30,4.80
2013,10,18,05,31,4.80
2013,10,18,05,32,4.80
2013,10,18,05,33,4.80
2013,10,18,05,34,4.70
2013,10,18,05,35,4.70
2013,10,18,05,36,4.70
2013,10,18,05,37,4.70
2013,10,18,05,38,4.70
2013,10,18,05,39,4.70
2013,10,18,05,40,4.70
2013,10,18,05,41,4.70
2013,10,18,05,42,4.60
2013,10,18,05,43,4.60
2013,10,18,05,44,4.60
2013,10,18,05,45,4.60
2013,10,18,05,46,4.60
2013,10,18,05,47,4.60
2013,10,18,05,48,4.60
2013,10,18,05,49,4.60
2013,10,18,05,50,4.50
2013,10,18,05,51,4.50
2013,10,18,05,52,4.50
2013,10,18,05,53,4.50
2013,10,18,05,54,4.50
2013,10,18,05,55,4.40
2013,10,18,05,56,4.40
2013,10,18,05,57,4.40
2013,10,18,05,58,4.40
2013,10,18,05,59,4.40
2013,10,18,06,00,4.40
2013,10,18,06,01,4.40
2013,10,18,06,02,4.40
2013,10,18,06,03,4.30
2013,10,18,06,04,4.30
2013,10,18,06,05,4.30
2013,10,18,06,06,4.30
2013,10,18,06,07,4.30
2013,10,18,06,08,4.30
2013,10,18,06,09,4.30
2013,10,18,06,10,4.30
2013,10,18,06,11,4.30
2013,10,18,06,12,4.30
2013,10,18,06,13,4.30
2013,10,18,06,14,4.30
2013,10,18,06,15,4.30
2013,10,18,06,16,4.30
2013,10,18,06,17,4.30
2013,10,18,06,18,4.30
2013,10,18,06,19,4.30
2013,10,18,06,20,4.30
2013,10,18,06,21,4.30
2013,10,18,06,22,4.30
2013,10,18,06,23,4.30
2013,10,18,06,24,4.30
2013,10,18,06,25,4.30
2013,10,18,06,26,4.30
2013,10,18,06,27,4.30
2013,10,18,06,28,4.30
2013,10,18,06,29,4.30
2013,10,18,06,30,4.30
2013,10,18,06,31,4.30
2013,10,18,06,32,4.30
2013,10,18,06,33,4.30
2013,10,18,06,34,4.30
2013,10,18,06,35,4.30
2013,10,18,06,36,4.30
2013,10,18,06,37,4.30
2013,10,18,06,38,4.30
2013,10,18,06,39,4.30
2013,10,18,06,40,4.30
2013,10,18,06,41,4.30
2013,10,18,06,42,4.30
2013,10,18,06,43,4.30
2013,10,18,06,44,4.30
2013,10,18,06,45,4.30
2013,10,18,06,46,4.30
2013,10,18,06,47,4.30
2013,10,18,06,48,4.30
2013,10,18,06,49,4.30
2013,10,18,06,50,4.30
2013,10,18,06,51,4.30
2013,10,18,06,52,4.30
2013,10,18,06,53,4.30
2013,10,18,06,54,4.30
2013,10,18,06,55,4.30
2013,10,18,06,56,4.30
2013,10,18,06,57,4.30
2013,10,18,06,58,4.30
2013,10,18,06,59,4.30
2013,10,18,07,00,4.30
2013,10,18,07,01,4.30
2013,10,18,07,02,4.30
2013,10,18,07,03,4.30
2013,10,18,07,04,4.30
2013,10,18,07,05,4.30
2013,10,18,07,06,4.30
2013,10,18,07,07,4.40
2013,10,18,07,08,4.40
2013,10,18,07,09,4.40
2013,10,18,07,10,4.40
2013,10,18,07,11,4.40
2013,10,18,07,12,4.40
2013,10,18,07,13,4.40
2013,10,18,07,14,4.40
2013,10,18,07,15,4.40
2013,10,18,07,16,4.40
2013,10,18,07,17,4.40
2013,10,18,07,18,4.40
2013,10,18,07,19,4.40
2013,10,18,07,20,4.40
2013,10,18,07,21,4.40
2013,10,18,07,22,4.40
2013,10,18,07,23,4.50
2013,10,18,07,24,4.50
2013,10,18,07,25,4.50
2013,10,18,07,26,4.60
2013,10,18,07,27,4.60
2013,10,18,07,28,4.60
2013,10,18,07,29,4.70
2013,10,18,07,30,4.70
2013,10,18,07,31,4.70
2013,10,18,07,32,4.70
2013,10,18,07,33,4.70
2013,10,18,07,34,4.70
2013,10,18,07,35,4.70
2013,10,18,07,36,4.80
2013,10,18,07,37,4.80
2013,10,18,07,38,4.80
2013,10,18,07,39,4.80
2013,10,18,07,40,4.80
2013,10,18,07,41,4.80
2013,10,18,07,42,4.90
2013,10,18,07,43,4.90
2013,10,18,07,44,4.90
2013,10,18,07,45,4.90
2013,10,18,07,46,5.00
2013,10,18,07,47,5.00
2013,10,18,07,48,5.00
2013,10,18,07,49,5.10
2013,10,18,07,50,5.10
2013,10,18,07,51,5.20
2013,10,18,07,52,5.20
2013,10,18,07,53,5.20
2013,10,18,07,54,5.30
2013,10,18,07,55,5.30
2013,10,18,07,56,5.30
2013,10,18,07,57,5.30
2013,10,18,07,58,5.40
2013,10,18,07,59,5.40
2013,10,18,08,00,5.50
2013,10,18,08,01,5.50
2013,10,18,08,02,5.60
2013,10,18,08,03,5.60
2013,10,18,08,04,5.60
2013,10,18,08,05,5.70
2013,10,18,08,06,5.70
2013,10,18,08,07,5.70
2013,10,18,08,08,5.70
2013,10,18,08,09,5.70
2013,10,18,08,10,5.70
2013,10,18,08,11,5.80
2013,10,18,08,12,5.80
2013,10,18,08,13,5.80
2013,10,18,08,14,5.80
2013,10,18,08,15,5.90
2013,10,18,08,16,5.90
2013,10,18,08,17,5.90
2013,10,18,08,18,5.90
2013,10,18,08,19,5.90
2013,10,18,08,20,6.00
2013,10,18,08,21,6.00
2013,10,18,08,22,6.00
2013,10,18,08,23,6.10
2013,10,18,08,24,6.10
2013,10,18,08,25,6.10
2013,10,18,08,26,6.10
2013,10,18,08,27,6.10
2013,10,18,08,28,6.10
2013,10,18,08,29,6.20
2013,10,18,08,30,6.20
2013,10,18,08,31,6.20
2013,10,18,08,32,6.20
2013,10,18,08,33,6.20
2013,10,18,08,34,6.20
2013,10,18,08,35,6.20
2013,10,18,08,36,6.20
2013,10,18,08,37,6.20
2013,10,18,08,38,6.20
2013,10,18,08,39,6.20
2013,10,18,08,40,6.20
2013,10,18,08,41,6.30
2013,10,18,08,42,6.30
2013,10,18,08,43,6.30
2013,10,18,08,44,6.30
2013,10,18,08,45,6.30
2013,10,18,08,46,6.30
2013,10,18,08,47,6.30
2013,10,18,08,48,6.30
2013,10,18,08,49,6.40
2013,10,18,08,50,6.40
2013,10,18,08,51,6.40
2013,10,18,08,52,6.40
2013,10,18,08,53,6.40
2013,10,18,08,54,6.40
2013,10,18,08,55,6.40
2013,10,18,08,56,6.40
2013,10,18,08,57,6.40
2013,10,18,08,58,6.40
2013,10,18,08,59,6.50
2013,10,18,09,00,6.50
2013,10,18,09,01,6.50
2013,10,18,09,02,6.50
2013,10,18,09,03,6.50
2013,10,18,09,04,6.50
2013,10,18,09,05,6.60
2013,10,18,09,06,6.60
2013,10,18,09,07,6.60
2013,10,18,09,08,6.60
2013,10,18,09,09,6.60
2013,10,18,09,10,6.60
2013,10,18,09,11,6.60
2013,10,18,09,12,6.70
2013,10,18,09,13,6.70
2013,10,18,09,14,6.70
2013,10,18,09,15,6.70
2013,10,18,09,16,6.70
2013,10,18,09,17,6.70
2013,10,18,09,18,6.70
2013,10,18,09,19,6.70
2013,10,18,09,20,6.70
2013,10,18,09,21,6.80
2013,10,18,09,22,6.80
2013,10,18,09,23,6.80
2013,10,18,09,24,6.80
2013,10,18,09,25,6.80
2013,10,18,09,26,6.90
2013,10,18,09,27,6.90
2013,10,18,09,28,6.90
2013,10,18,09,29,6.80
2013,10,18,09,30,6.90
2013,10,18,09,31,6.90
2013,10,18,09,32,6.90
2013,10,18,09,33,6.90
2013,10,18,09,34,6.90
2013,10,18,09,35,6.90
2013,10,18,09,36,6.90
2013,10,18,09,37,6.90
2013,10,18,09,38,6.90
2013,10,18,09,39,6.90
2013,10,18,09,40,6.90
2013,10,18,09,41,6.90
2013,10,18,09,42,6.90
2013,10,18,09,43,6.90
2013,10,18,09,44,6.90
2013,10,18,09,45,6.90
2013,10,18,09,46,7.00
2013,10,18,09,47,7.00
2013,10,18,09,48,7.00
2013,10,18,09,49,7.00
2013,10,18,09,50,7.00
2013,10,18,09,51,7.00
2013,10,18,09,52,7.00
2013,10,18,09,53,7.00
2013,10,18,09,54,7.00
2013,10,18,09,55,7.00
2013,10,18,09,56,7.10
2013,10,18,09,57,7.10
2013,10,18,09,58,7.10
2013,10,18,09,59,7.20
2013,10,18,10,00,7.20
2013,10,18,10,01,7.20
2013,10,18,10,02,7.30
2013,10,18,10,03,7.30
2013,10,18,10,04,7.30
2013,10,18,10,05,7.40
2013,10,18,10,06,7.40
2013,10,18,10,07,7.40
2013,10,18,10,08,7.40
2013,10,18,10,09,7.40
2013,10,18,10,10,7.50
2013,10,18,10,11,7.50
2013,10,18,10,12,7.50
2013,10,18,10,13,7.60
2013,10,18,10,14,7.60
2013,10,18,10,15,7.60
2013,10,18,10,16,7.60
2013,10,18,10,17,7.60
2013,10,18,10,18,7.60
2013,10,18,10,19,7.60
2013,10,18,10,20,7.60
2013,10,18,10,21,7.60
2013,10,18,10,22,7.60
2013,10,18,10,23,7.60
2013,10,18,10,24,7.60
2013,10,18,10,25,7.60
2013,10,18,10,26,7.60
2013,10,18,10,27,7.60
2013,10,18,10,28,7.60
2013,10,18,10,29,7.70
2013,10,18,10,30,7.70
2013,10,18,10,31,7.70
2013,10,18,10,32,7.70
2013,10,18,10,33,7.70
2013,10,18,10,34,7.70
2013,10,18,10,35,7.70
2013,10,18,10,36,7.70
2013,10,18,10,37,7.80
2013,10,18,10,38,7.80
2013,10,18,10,39,7.80
2013,10,18,10,40,7.80
2013,10,18,10,41,7.80
2013,10,18,10,42,7.80
2013,10,18,10,43,7.90
2013,10,18,10,44,7.90
2013,10,18,10,45,7.90
2013,10,18,10,46,7.90
2013,10,18,10,47,7.90
2013,10,18,10,48,7.90
2013,10,18,10,49,7.90
2013,10,18,10,50,8.00
2013,10,18,10,51,8.00
2013,10,18,10,52,8.00
2013,10,18,10,53,8.00
2013,10,18,10,54,8.10
2013,10,18,10,55,8.10
2013,10,18,10,56,8.10
2013,10,18,10,57,8.20
2013,10,18,10,58,8.20
2013,10,18,10,59,8.20
2013,10,18,11,00,8.20
2013,10,18,11,01,8.20
2013,10,18,11,02,8.20
2013,10,18,11,03,8.20
2013,10,18,11,04,8.30
2013,10,18,11,05,8.30
2013,10,18,11,06,8.30
2013,10,18,11,07,8.30
2013,10,18,11,08,8.30
2013,10,18,11,09,8.30
2013,10,18,11,10,8.30
2013,10,18,11,11,8.30
2013,10,18,11,12,8.30
2013,10,18,11,13,8.30
2013,10,18,11,14,8.30
2013,10,18,11,15,8.40
2013,10,18,11,16,8.40
2013,10,18,11,17,8.40
2013,10,18,11,18,8.40
2013,10,18,11,19,8.40
2013,10,18,11,20,8.50
2013,10,18,11,21,8.50
2013,10,18,11,22,8.50
2013,10,18,11,23,8.60
2013,10,18,11,24,8.60
2013,10,18,11,25,8.60
2013,10,18,11,26,8.60
2013,10,18,11,27,8.60
2013,10,18,11,28,8.60
2013,10,18,11,29,8.60
2013,10,18,11,30,8.60
2013,10,18,11,31,8.60
2013,10,18,11,32,8.60
2013,10,18,11,33,8.60
2013,10,18,11,34,8.70
2013,10,18,11,35,8.70
2013,10,18,11,36,8.80
2013,10,18,11,37,8.80
2013,10,18,11,38,8.90
2013,10,18,11,39,9.00
2013,10,18,11,40,9.00
2013,10,18,11,41,9.10
2013,10,18,11,42,9.10
2013,10,18,11,43,9.20
2013,10,18,11,44,9.20
2013,10,18,11,45,9.30
2013,10,18,11,46,9.40
2013,10,18,11,47,9.50
2013,10,18,11,48,9.60
2013,10,18,11,49,9.70
2013,10,18,11,50,9.80
2013,10,18,11,51,9.90
2013,10,18,11,52,10.00
2013,10,18,11,53,10.10
2013,10,18,11,54,10.10
2013,10,18,11,55,10.20
2013,10,18,11,56,10.20
2013,10,18,11,57,10.20
2013,10,18,11,58,10.20
2013,10,18,11,59,10.20
2013,10,18,12,00,10.20
2013,10,18,12,01,10.30
2013,10,18,12,02,10.40
2013,10,18,12,03,10.40
2013,10,18,12,04,10.50
2013,10,18,12,05,10.60
2013,10,18,12,06,10.60
2013,10,18,12,07,10.70
2013,10,18,12,08,10.80
2013,10,18,12,09,10.90
2013,10,18,12,10,10.90
2013,10,18,12,11,10.90
2013,10,18,12,12,11.00
2013,10,18,12,13,11.00
2013,10,18,12,14,11.10
2013,10,18,12,15,11.20
2013,10,18,12,16,11.20
2013,10,18,12,17,11.30
2013,10,18,12,18,11.30
2013,10,18,12,19,11.20
2013,10,18,12,20,11.30
2013,10,18,12,21,11.30
2013,10,18,12,22,11.30
2013,10,18,12,23,11.40
2013,10,18,12,24,11.40
2013,10,18,12,25,11.40
2013,10,18,12,26,11.40
2013,10,18,12,27,11.40
2013,10,18,12,28,11.50
2013,10,18,12,29,11.50
2013,10,18,12,30,11.50
2013,10,18,12,31,11.50
2013,10,18,12,32,11.50
2013,10,18,12,33,11.50
2013,10,18,12,34,11.50
2013,10,18,12,35,11.50
2013,10,18,12,36,11.60
2013,10,18,12,37,11.60
2013,10,18,12,38,11.70
2013,10,18,12,39,11.70
2013,10,18,12,40,11.70
2013,10,18,12,41,11.80
2013,10,18,12,42,11.80
2013,10,18,12,43,11.90
2013,10,18,12,44,11.90
2013,10,18,12,45,12.00
2013,10,18,12,46,12.10
2013,10,18,12,47,12.10
2013,10,18,12,48,12.20
2013,10,18,12,49,12.30
2013,10,18,12,50,12.40
2013,10,18,12,51,12.50
2013,10,18,12,52,12.60
2013,10,18,12,53,12.60
2013,10,18,12,54,12.60
2013,10,18,12,55,12.60
2013,10,18,12,56,12.60
2013,10,18,12,57,12.70
2013,10,18,12,58,12.70
2013,10,18,12,59,12.80
2013,10,18,13,00,12.80
2013,10,18,13,01,12.80
2013,10,18,13,02,12.80
2013,10,18,13,03,12.90
2013,10,18,13,04,12.90
2013,10,18,13,05,12.90
2013,10,18,13,06,13.00
2013,10,18,13,07,13.00
2013,10,18,13,08,13.00
2013,10,18,13,09,13.10
2013,10,18,13,10,13.10
2013,10,18,13,11,13.20
2013,10,18,13,12,13.30
2013,10,18,13,13,13.40
2013,10,18,13,14,13.40
2013,10,18,13,15,13.50
2013,10,18,13,16,13.50
2013,10,18,13,17,13.60
2013,10,18,13,18,13.60
2013,10,18,13,19,13.70
2013,10,18,13,20,13.70
2013,10,18,13,21,13.70
2013,10,18,13,22,13.70
2013,10,18,13,23,13.70
2013,10,18,13,24,13.70
2013,10,18,13,25,13.60
2013,10,18,13,26,13.60
2013,10,18,13,27,13.50
2013,10,18,13,28,13.40
2013,10,18,13,29,13.50
2013,10,18,13,30,13.50
2013,10,18,13,31,13.50
2013,10,18,13,32,13.50
2013,10,18,13,33,13.50
2013,10,18,13,34,13.60
2013,10,18,13,35,13.50
2013,10,18,13,36,13.50
2013,10,18,13,37,13.50
2013,10,18,13,38,13.40
2013,10,18,13,39,13.50
2013,10,18,13,40,13.40
2013,10,18,13,41,13.40
2013,10,18,13,42,13.40
2013,10,18,13,43,13.40
2013,10,18,13,44,13.40
2013,10,18,13,45,13.40
2013,10,18,13,46,13.40
2013,10,18,13,47,13.40
2013,10,18,13,48,13.40
2013,10,18,13,49,13.40
2013,10,18,13,50,13.40
2013,10,18,13,51,13.30
2013,10,18,13,52,13.30
2013,10,18,13,53,13.40
2013,10,18,13,54,13.40
2013,10,18,13,55,13.40
2013,10,18,13,56,13.40
2013,10,18,13,57,13.40
2013,10,18,13,58,13.50
2013,10,18,13,59,13.50
2013,10,18,14,00,13.50
2013,10,18,14,01,13.60
2013,10,18,14,02,13.60
2013,10,18,14,03,13.70
2013,10,18,14,04,13.80
2013,10,18,14,05,13.90
2013,10,18,14,06,13.90
2013,10,18,14,07,14.00
2013,10,18,14,08,14.00
2013,10,18,14,09,14.10
2013,10,18,14,10,14.10
2013,10,18,14,11,14.10
2013,10,18,14,12,14.20
2013,10,18,14,13,14.20
2013,10,18,14,14,14.30
2013,10,18,14,15,14.30
2013,10,18,14,16,14.30
2013,10,18,14,17,14.30
2013,10,18,14,18,14.30
2013,10,18,14,19,14.30
2013,10,18,14,20,14.30
2013,10,18,14,21,14.30
2013,10,18,14,22,14.30
2013,10,18,14,23,14.30
2013,10,18,14,24,14.30
2013,10,18,14,25,14.30
2013,10,18,14,26,14.30
2013,10,18,14,27,14.30
2013,10,18,14,28,14.30
2013,10,18,14,29,14.40
2013,10,18,14,30,14.40
2013,10,18,14,31,14.40
2013,10,18,14,32,14.40
2013,10,18,14,33,14.40
2013,10,18,14,34,14.40
2013,10,18,14,35,14.40
2013,10,18,14,36,14.40
2013,10,18,14,37,14.40
2013,10,18,14,38,14.40
2013,10,18,14,39,14.40
2013,10,18,14,40,14.50
2013,10,18,14,41,14.50
2013,10,18,14,42,14.60
2013,10,18,14,43,14.60
2013,10,18,14,44,14.70
2013,10,18,14,45,14.70
2013,10,18,14,46,14.70
2013,10,18,14,47,14.70
2013,10,18,14,48,14.80
2013,10,18,14,49,14.70
2013,10,18,14,50,14.70
2013,10,18,14,51,14.70
2013,10,18,14,52,14.70
2013,10,18,14,53,14.70
2013,10,18,14,54,14.80
2013,10,18,14,55,14.80
2013,10,18,14,56,14.80
2013,10,18,14,57,14.80
2013,10,18,14,58,14.80
2013,10,18,14,59,14.70
2013,10,18,15,00,14.70
2013,10,18,15,01,14.60
2013,10,18,15,02,14.60
2013,10,18,15,03,14.60
2013,10,18,15,04,14.50
2013,10,18,15,05,14.50
2013,10,18,15,06,14.40
2013,10,18,15,07,14.40
2013,10,18,15,08,14.40
2013,10,18,15,09,14.40
2013,10,18,15,10,14.30
2013,10,18,15,11,14.30
2013,10,18,15,12,14.30
2013,10,18,15,13,14.20
2013,10,18,15,14,14.20
2013,10,18,15,15,14.20
2013,10,18,15,16,14.20
2013,10,18,15,17,14.20
2013,10,18,15,18,14.20
2013,10,18,15,19,14.20
2013,10,18,15,20,14.20
2013,10,18,15,21,14.10
2013,10,18,15,22,14.10
2013,10,18,15,23,14.10
2013,10,18,15,24,14.10
2013,10,18,15,25,14.00
2013,10,18,15,26,14.00
2013,10,18,15,27,13.90
2013,10,18,15,28,13.80
2013,10,18,15,29,13.80
2013,10,18,15,30,13.80
2013,10,18,15,31,13.80
2013,10,18,15,32,13.80
2013,10,18,15,33,13.80
2013,10,18,15,34,13.80
2013,10,18,15,35,13.80
2013,10,18,15,36,13.80
2013,10,18,15,37,13.70
2013,10,18,15,38,13.70
2013,10,18,15,39,13.80
2013,10,18,15,40,13.80
2013,10,18,15,41,13.80
2013,10,18,15,42,13.80
2013,10,18,15,43,13.80
2013,10,18,15,44,13.80
2013,10,18,15,45,13.70
2013,10,18,15,46,13.70
2013,10,18,15,47,13.60
2013,10,18,15,48,13.50
2013,10,18,15,49,13.50
2013,10,18,15,50,13.40
2013,10,18,15,51,13.40
2013,10,18,15,52,13.30
2013,10,18,15,53,13.30
2013,10,18,15,54,13.30
2013,10,18,15,55,13.20
2013,10,18,15,56,13.10
2013,10,18,15,57,13.00
2013,10,18,15,58,12.90
2013,10,18,15,59,12.80
2013,10,18,16,00,12.80
2013,10,18,16,01,12.70
2013,10,18,16,02,12.60
2013,10,18,16,03,12.50
2013,10,18,16,04,12.40
2013,10,18,16,05,12.40
2013,10,18,16,06,12.30
2013,10,18,16,07,12.30
2013,10,18,16,08,12.30
2013,10,18,16,09,12.20
2013,10,18,16,10,12.20
2013,10,18,16,11,12.10
2013,10,18,16,12,12.10
2013,10,18,16,13,12.10
2013,10,18,16,14,12.10
2013,10,18,16,15,12.00
2013,10,18,16,16,11.90
2013,10,18,16,17,11.90
2013,10,18,16,18,11.90
2013,10,18,16,19,11.90
2013,10,18,16,20,12.00
2013,10,18,16,21,12.00
2013,10,18,16,22,12.00
2013,10,18,16,23,11.90
2013,10,18,16,24,11.90
2013,10,18,16,25,11.90
2013,10,18,16,26,11.90
2013,10,18,16,27,11.90
2013,10,18,16,28,11.90
2013,10,18,16,29,11.90
2013,10,18,16,30,11.80
2013,10,18,16,31,11.80
2013,10,18,16,32,11.70
2013,10,18,16,33,11.60
2013,10,18,16,34,11.50
2013,10,18,16,35,11.40
2013,10,18,16,36,11.30
2013,10,18,16,37,11.30
2013,10,18,16,38,11.30
2013,10,18,16,39,11.30
2013,10,18,16,40,11.30
2013,10,18,16,41,11.30
2013,10,18,16,42,11.30
2013,10,18,16,43,11.30
2013,10,18,16,44,11.40
2013,10,18,16,45,11.40
2013,10,18,16,46,11.40
2013,10,18,16,47,11.30
2013,10,18,16,48,11.30
2013,10,18,16,49,11.30
2013,10,18,16,50,11.30
2013,10,18,16,51,11.30
2013,10,18,16,52,11.30
2013,10,18,16,53,11.30
2013,10,18,16,54,11.30
2013,10,18,16,55,11.30
2013,10,18,16,56,11.30
2013,10,18,16,57,11.30
2013,10,18,16,58,11.30
2013,10,18,16,59,11.30
2013,10,18,17,00,11.30
2013,10,18,17,01,11.30
2013,10,18,17,02,11.30
2013,10,18,17,03,11.30
2013,10,18,17,04,11.30
2013,10,18,17,05,11.30
2013,10,18,17,06,11.20
2013,10,18,17,07,11.20
2013,10,18,17,08,11.20
2013,10,18,17,09,11.20
2013,10,18,17,10,11.10
2013,10,18,17,11,11.00
2013,10,18,17,12,11.00
2013,10,18,17,13,10.90
2013,10,18,17,14,10.90
2013,10,18,17,15,10.90
2013,10,18,17,16,10.90
2013,10,18,17,17,10.90
2013,10,18,17,18,10.80
2013,10,18,17,19,10.80
2013,10,18,17,20,10.70
2013,10,18,17,21,10.70
2013,10,18,17,22,10.70
2013,10,18,17,23,10.70
2013,10,18,17,24,10.60
2013,10,18,17,25,10.60
2013,10,18,17,26,10.60
2013,10,18,17,27,10.60
2013,10,18,17,28,10.60
2013,10,18,17,29,10.60
2013,10,18,17,30,10.60
2013,10,18,17,31,10.50
2013,10,18,17,32,10.50
2013,10,18,17,33,10.50
2013,10,18,17,34,10.50
2013,10,18,17,35,10.50
2013,10,18,17,36,10.50
2013,10,18,17,37,10.40
2013,10,18,17,38,10.40
2013,10,18,17,39,10.30
2013,10,18,17,40,10.30
2013,10,18,17,41,10.30
2013,10,18,17,42,10.20
2013,10,18,17,43,10.20
2013,10,18,17,44,10.10
2013,10,18,17,45,10.10
2013,10,18,17,46,10.00
2013,10,18,17,47,10.00
2013,10,18,17,48,10.00
2013,10,18,17,49,9.90
2013,10,18,17,50,9.90